FWG15P DTTA-LIBR

Flight info

Callsign FWG15P
Flight time 1h 7m
Altitude 38000
Route ICANI4B ICANI DCT NERAR DCT ROBOT
Aircraft A20N/M-SDE2E3FGHIRWXY/LB1

Departure

Time 2026-05-04 09:01
Airport Tunis Carthage International Airport (DTTA)

Arrival

Time 2026-05-04 10:08
Airport Brindisi Airport (LIBR)
Time Latitude Longitude Altitude Speed Heading
2026-05-04 08:35 36.84647 10.21949 21 ft 0 kts 196°
2026-05-04 08:47 36.84652 10.21951 21 ft 2 kts 197°
2026-05-04 08:47 36.84666 10.21956 22 ft 2 kts 197°
2026-05-04 08:47 36.84680 10.21962 22 ft 2 kts 197°
2026-05-04 08:48 36.84695 10.21968 22 ft 2 kts 197°
2026-05-04 08:48 36.84709 10.21973 22 ft 1 kts 197°
2026-05-04 08:48 36.84718 10.21979 22 ft 1 kts 245°
2026-05-04 08:48 36.84718 10.21993 22 ft 2 kts 294°
2026-05-04 08:49 36.84714 10.22011 21 ft 2 kts 278°
2026-05-04 08:50 36.84712 10.22026 21 ft 0 kts 283°
2026-05-04 08:51 36.84713 10.22016 21 ft 3 kts 283°
2026-05-04 08:51 36.84747 10.21977 22 ft 10 kts
2026-05-04 08:52 36.84838 10.22011 21 ft 16 kts 11°
2026-05-04 08:52 36.84892 10.22113 19 ft 18 kts 99°
2026-05-04 08:52 36.84874 10.22274 16 ft 19 kts 102°
2026-05-04 08:52 36.84924 10.22373 14 ft 16 kts 11°
2026-05-04 08:53 36.85033 10.22403 16 ft 15 kts 12°
2026-05-04 08:54 36.85869 10.22631 18 ft 18 kts 12°
2026-05-04 08:55 36.85993 10.22665 18 ft 18 kts 12°
2026-05-04 08:55 36.86114 10.22697 20 ft 17 kts 12°
2026-05-04 08:55 36.86230 10.22729 20 ft 17 kts 12°
2026-05-04 08:55 36.86349 10.22761 20 ft 17 kts 12°
2026-05-04 08:57 36.86724 10.23094 18 ft 16 kts 150°
2026-05-04 09:01 36.81038 10.26617 6219 ft 225 kts 330°
2026-05-04 09:01 36.82355 10.25540 6858 ft 233 kts 324°
2026-05-04 09:01 36.83719 10.24409 7549 ft 240 kts 333°
2026-05-04 09:01 36.85343 10.24049 8310 ft 246 kts
2026-05-04 09:02 36.86940 10.24881 8902 ft 261 kts 35°
2026-05-04 09:02 36.88368 10.26408 9350 ft 279 kts 38°
2026-05-04 09:02 36.89864 10.28028 9915 ft 290 kts 38°
2026-05-04 09:02 36.91403 10.29680 10595 ft 297 kts 37°
2026-05-04 09:03 36.93016 10.31400 10995 ft 314 kts 37°
2026-05-04 09:03 36.94721 10.33211 11322 ft 331 kts 37°
2026-05-04 09:03 36.96527 10.35128 11647 ft 348 kts 37°
2026-05-04 09:03 36.98395 10.37113 12204 ft 357 kts 37°
2026-05-04 09:04 37.00297 10.39138 12926 ft 360 kts 38°
2026-05-04 09:04 37.02211 10.41174 13615 ft 363 kts 38°
2026-05-04 09:04 37.04146 10.43236 14274 ft 367 kts 37°
2026-05-04 09:04 37.06101 10.45321 14913 ft 371 kts 37°
2026-05-04 09:05 37.08082 10.47433 15537 ft 376 kts 37°
2026-05-04 09:05 37.10086 10.49568 16132 ft 380 kts 37°
2026-05-04 09:05 37.12108 10.51727 16722 ft 384 kts 37°
2026-05-04 09:05 37.14150 10.53908 17298 ft 388 kts 37°
2026-05-04 09:06 37.16219 10.56119 17872 ft 392 kts 37°
2026-05-04 09:07 37.29669 10.74045 21711 ft 419 kts 49°
2026-05-04 09:08 37.31416 10.76977 22233 ft 422 kts 49°
2026-05-04 09:08 37.33178 10.79930 22725 ft 425 kts 49°
2026-05-04 09:08 37.34956 10.82906 23197 ft 429 kts 48°
2026-05-04 09:08 37.36748 10.85906 23674 ft 432 kts 48°
2026-05-04 09:09 37.38557 10.88929 24119 ft 436 kts 48°
2026-05-04 09:09 37.40380 10.91980 24556 ft 439 kts 48°
2026-05-04 09:09 37.42218 10.95060 24995 ft 442 kts 47°
2026-05-04 09:09 37.44073 10.98171 25431 ft 445 kts 48°
2026-05-04 09:10 37.45943 11.01305 25848 ft 448 kts 47°
2026-05-04 09:10 37.47826 11.04468 26241 ft 452 kts 47°
2026-05-04 09:10 37.49714 11.07642 26649 ft 454 kts 47°
2026-05-04 09:10 37.51615 11.10842 27054 ft 457 kts 47°
2026-05-04 09:11 37.53515 11.14045 27444 ft 459 kts 47°
2026-05-04 09:11 37.55428 11.17271 27810 ft 461 kts 47°
2026-05-04 09:11 37.57348 11.20510 28142 ft 464 kts 47°
2026-05-04 09:11 37.59275 11.23767 28478 ft 466 kts 47°
2026-05-04 09:12 37.61212 11.27042 28803 ft 468 kts 47°
2026-05-04 09:12 37.63162 11.30343 29093 ft 471 kts 47°
2026-05-04 09:14 37.76753 11.53454 31570 ft 467 kts 46°
2026-05-04 09:14 37.78683 11.56748 31881 ft 467 kts 46°
2026-05-04 09:14 37.80611 11.60039 32200 ft 466 kts 46°
2026-05-04 09:14 37.82532 11.63324 32505 ft 466 kts 46°
2026-05-04 09:15 37.84462 11.66630 32794 ft 466 kts 46°
2026-05-04 09:15 37.86377 11.69911 33095 ft 465 kts 46°
2026-05-04 09:15 37.88289 11.73192 33378 ft 464 kts 46°
2026-05-04 09:15 37.90195 11.76466 33647 ft 463 kts 46°
2026-05-04 09:17 38.05388 12.02654 35668 ft 459 kts 46°
2026-05-04 09:18 38.07271 12.05914 35866 ft 459 kts 46°
2026-05-04 09:18 38.09151 12.09175 36071 ft 459 kts 46°
2026-05-04 09:18 38.11031 12.12434 36269 ft 459 kts 46°
2026-05-04 09:18 38.12910 12.15699 36458 ft 459 kts 46°
2026-05-04 09:19 38.14789 12.18967 36626 ft 460 kts 46°
2026-05-04 09:19 38.16668 12.22240 36774 ft 460 kts 46°
2026-05-04 09:19 38.18551 12.25520 36911 ft 461 kts 46°
2026-05-04 09:19 38.20435 12.28805 37052 ft 462 kts 46°
2026-05-04 09:20 38.22319 12.32095 37212 ft 462 kts 46°
2026-05-04 09:20 38.24206 12.35393 37312 ft 463 kts 46°
2026-05-04 09:20 38.26096 12.38697 37435 ft 463 kts 46°
2026-05-04 09:20 38.27986 12.42008 37559 ft 464 kts 47°
2026-05-04 09:21 38.29876 12.45324 37671 ft 464 kts 47°
2026-05-04 09:21 38.31771 12.48649 37769 ft 465 kts 46°
2026-05-04 09:21 38.35564 12.55317 37911 ft 467 kts 47°
2026-05-04 09:22 38.37465 12.58663 38030 ft 467 kts 47°
2026-05-04 09:22 38.39360 12.62004 38123 ft 467 kts 47°
2026-05-04 09:22 38.43166 12.68722 38130 ft 469 kts 47°
2026-05-04 09:23 38.46981 12.75467 38135 ft 470 kts 47°
2026-05-04 09:23 38.50791 12.82224 38138 ft 470 kts 47°
2026-05-04 09:25 38.64090 13.05903 37992 ft 468 kts 47°
2026-05-04 09:25 38.65976 13.09274 38096 ft 468 kts 47°
2026-05-04 09:26 38.69764 13.16053 38138 ft 470 kts 47°
2026-05-04 09:26 38.73545 13.22840 38142 ft 469 kts 47°
2026-05-04 09:27 38.77317 13.29627 38148 ft 469 kts 47°
2026-05-04 09:27 38.81089 13.36422 38143 ft 468 kts 47°
2026-05-04 09:28 38.84851 13.43217 38147 ft 469 kts 47°
2026-05-04 09:28 38.88603 13.50010 38136 ft 468 kts 47°
2026-05-04 09:29 38.92349 13.56802 38158 ft 467 kts 47°
2026-05-04 09:29 38.96090 13.63596 38140 ft 467 kts 48°
2026-05-04 09:30 38.99822 13.70395 38139 ft 467 kts 48°
2026-05-04 09:30 39.03556 13.77209 38151 ft 466 kts 48°
2026-05-04 09:31 39.07279 13.84017 38145 ft 466 kts 48°
2026-05-04 09:31 39.11002 13.90843 38152 ft 466 kts 49°
2026-05-04 09:32 39.14723 13.97676 38160 ft 466 kts 49°
2026-05-04 09:34 39.29489 14.24949 38153 ft 465 kts 50°
2026-05-04 09:34 39.32922 14.32035 38151 ft 468 kts 53°
2026-05-04 09:35 39.36235 14.39248 38150 ft 468 kts 53°
2026-05-04 09:35 39.39538 14.46455 38161 ft 468 kts 53°
2026-05-04 09:37 39.52727 14.75331 38156 ft 468 kts 54°
2026-05-04 09:38 39.56017 14.82575 38168 ft 467 kts 55°
2026-05-04 09:38 39.59299 14.89820 38167 ft 467 kts 55°
2026-05-04 09:39 39.62574 14.97063 38168 ft 467 kts 55°
2026-05-04 09:39 39.65847 15.04314 38172 ft 466 kts 55°
2026-05-04 09:40 39.69105 15.11553 38165 ft 466 kts 55°
2026-05-04 09:40 39.72365 15.18815 38165 ft 466 kts 55°
2026-05-04 09:42 39.85328 15.47853 38082 ft 466 kts 55°
2026-05-04 09:43 39.86952 15.51506 37364 ft 468 kts 55°
2026-05-04 09:43 39.88573 15.55158 36631 ft 468 kts 55°
2026-05-04 09:43 39.90193 15.58812 35986 ft 469 kts 56°
2026-05-04 09:43 39.91817 15.62481 35272 ft 471 kts 56°
2026-05-04 09:44 39.93446 15.66163 34527 ft 473 kts 57°
2026-05-04 09:44 39.95087 15.69882 33695 ft 474 kts 57°
2026-05-04 09:44 39.96720 15.73592 32977 ft 472 kts 56°
2026-05-04 09:46 40.07948 15.99199 28413 ft 457 kts 56°
2026-05-04 09:46 40.09521 16.02804 27940 ft 453 kts 56°
2026-05-04 09:46 40.11071 16.06357 27496 ft 449 kts 56°
2026-05-04 09:47 40.12606 16.09879 27023 ft 446 kts 56°
2026-05-04 09:47 40.14128 16.13372 26559 ft 442 kts 56°
2026-05-04 09:49 40.24389 16.37046 23257 ft 416 kts 57°
2026-05-04 09:49 40.25801 16.40321 22797 ft 413 kts 56°
2026-05-04 09:49 40.27200 16.43563 22317 ft 409 kts 57°
2026-05-04 09:51 40.35327 16.62488 19488 ft 388 kts 58°
2026-05-04 09:51 40.36638 16.65550 19031 ft 385 kts 58°
2026-05-04 09:51 40.37937 16.68591 18554 ft 382 kts 59°
2026-05-04 09:51 40.39226 16.71608 18077 ft 379 kts 59°
2026-05-04 09:52 40.40503 16.74604 17602 ft 376 kts 59°
2026-05-04 09:52 40.41773 16.77584 17134 ft 373 kts 59°
2026-05-04 09:52 40.43027 16.80534 16690 ft 370 kts 59°
2026-05-04 09:52 40.44270 16.83461 16228 ft 367 kts 59°
2026-05-04 09:53 40.45504 16.86363 15788 ft 364 kts 59°
2026-05-04 09:53 40.46725 16.89243 15331 ft 361 kts 58°
2026-05-04 09:53 40.47936 16.92098 14891 ft 358 kts 59°
2026-05-04 09:53 40.49140 16.94941 14421 ft 355 kts 59°
2026-05-04 09:54 40.50338 16.97769 13980 ft 352 kts 58°
2026-05-04 09:54 40.51522 17.00571 13549 ft 349 kts 58°
2026-05-04 09:54 40.52695 17.03342 13079 ft 346 kts 59°
2026-05-04 09:54 40.53859 17.06098 12630 ft 344 kts 59°
2026-05-04 09:55 40.55011 17.08831 12206 ft 341 kts 59°
2026-05-04 09:55 40.56158 17.11552 11768 ft 339 kts 59°
2026-05-04 09:55 40.57296 17.14254 11308 ft 337 kts 59°
2026-05-04 09:55 40.58420 17.16925 10933 ft 331 kts 59°
2026-05-04 09:56 40.59515 17.19536 10696 ft 321 kts 59°
2026-05-04 09:56 40.60571 17.22055 10563 ft 308 kts 59°
2026-05-04 09:56 40.61585 17.24474 10434 ft 296 kts 58°
2026-05-04 09:56 40.62559 17.26799 10314 ft 285 kts 58°
2026-05-04 09:57 40.63497 17.29036 10234 ft 274 kts 58°
2026-05-04 09:57 40.64403 17.31200 9979 ft 269 kts 58°
2026-05-04 09:57 40.65302 17.33346 9660 ft 268 kts 58°
2026-05-04 09:57 40.66197 17.35484 9352 ft 266 kts 58°
2026-05-04 09:58 40.67086 17.37611 9047 ft 265 kts 58°
2026-05-04 09:58 40.67968 17.39724 8761 ft 264 kts 58°
2026-05-04 09:58 40.68846 17.41828 8444 ft 262 kts 58°
2026-05-04 10:00 40.69818 17.57983 6314 ft 263 kts 92°
2026-05-04 10:00 40.69990 17.60336 5901 ft 259 kts 65°
2026-05-04 10:02 40.80274 17.68270 3587 ft 239 kts 34°
2026-05-04 10:04 40.78876 17.78780 2969 ft 175 kts 137°
2026-05-04 10:04 40.77995 17.79827 2772 ft 167 kts 136°
2026-05-04 10:04 40.77156 17.80842 2547 ft 160 kts 136°
2026-05-04 10:04 40.76363 17.81811 2330 ft 151 kts 136°
2026-05-04 10:05 40.75611 17.82732 2127 ft 145 kts 136°
2026-05-04 10:05 40.74873 17.83638 1949 ft 145 kts 135°
2026-05-04 10:05 40.74136 17.84541 1770 ft 144 kts 135°
2026-05-04 10:05 40.73399 17.85442 1586 ft 144 kts 136°
2026-05-04 10:06 40.72668 17.86337 1400 ft 143 kts 136°
2026-05-04 10:06 40.71937 17.87231 1210 ft 143 kts 136°
2026-05-04 10:06 40.71209 17.88120 1022 ft 142 kts 135°
2026-05-04 10:08 40.66956 17.93322 29 ft 119 kts 136°
2026-05-04 10:08 40.66473 17.93915 27 ft 70 kts 137°
2026-05-04 10:08 40.66232 17.94208 26 ft 33 kts 137°
2026-05-04 10:08 40.66070 17.94405 27 ft 30 kts 137°
2026-05-04 10:09 40.65951 17.94522 29 ft 17 kts 177°
2026-05-04 10:09 40.65886 17.94458 30 ft 7 kts 231°
2026-05-04 10:09 40.65884 17.94453 31 ft 0 kts 231°
2026-05-04 10:09 40.65879 17.94446 31 ft 3 kts 232°
2026-05-04 10:10 40.65843 17.94384 31 ft 10 kts 233°
2026-05-04 10:10 40.65798 17.94306 33 ft 10 kts 233°
2026-05-04 10:10 40.65753 17.94228 35 ft 10 kts 233°
2026-05-04 10:10 40.65702 17.94141 35 ft 10 kts 232°
2026-05-04 10:11 40.65699 17.94077 36 ft 8 kts 322°
2026-05-04 10:11 40.65746 17.94031 36 ft 3 kts 322°
2026-05-04 10:11 40.65758 17.94019 36 ft 0 kts 322°